SCP
0 0 0 0 0 0 0 0 0 0 0 0 0 0 0 0 0 1 0 0 0 -0 -1 -1 -1 -2 -2 -2 -2 -1 -1 -1
0 0 0 0 0 0 0 0 0 0 0 0 0 -0 0 0 1 1 1 0 0 -0 -0 -1 -1 -1 -1 -1 -1 -1 -1 -1
0 0 0 0 0 0 0 0 0 0 0 0 0 0 -0 0 1 1 1 1 0 0 0 -0 -1 -1 -1 -1 -1 -1 -1 -1
0 0 0 0 0 0 0 0 0 0 0 0 0 0 0 0 1 1 1 1 1 0 -0 -0 -0 -0 -0 -0 -0 -0 -0 -0
0 0 0 0 0 0 0 0 0 0 0 0 0 0 0 0 0 1 1 1 1 1 0 0 -0 -0 -0 -0 -0 -0 -0 -0
0 0 0 0 0 0 0 0 0 0 0 0 0 0 0 -1 0 1 1 1 2 1 0 0 0 0 -0 -0 0 0 0 0
0 0 0 0 0 0 0 0 0 0 0 0 0 0 0 -0 0 1 1 1 1 1 1 0 0 0 0 0 0 0 0 0
0 0 0 0 0 0 -0 0 0 0 0 0 0 0 0 0 0 1 1 1 1 1 1 1 0 0 0 0 0 0 0 0
0 0 0 0 0 0 -0 -0 -0 -0 -0 0 0 0 0 0 0 0 1 1 1 2 2 1 0 0 0 0 0 0 0 0
0 0 0 0 0 0 0 -0 -0 -0 -0 -0 0 0 0 0 0 0 1 1 1 2 3 2 1 1 0 0 0 0 0 0
0 0 0 0 0 0 0 -0 -0 -0 -0 -0 -0 0 0 0 0 0 1 1 1 2 3 3 2 1 1 0 0 0 0 0
0 0 0 0 0 0 0 0 -0 -0 -0 -0 0 0 0 0 0 0 1 2 2 2 3 3 3 2 1 1 0 0 0 0
0 0 0 0 0 0 0 0 0 -0 -0 -0 0 0 0 0 0 0 0 2 3 2 2 4 3 3 2 1 1 0 0 0
0 0 0 0 0 0 0 0 0 0 -0 -0 -0 0 0 0 0 0 -0 -0 2 3 2 4 4 4 3 1 1 0 0 0
0 0 0 0 0 0 0 0 0 0 -0 -0 -0 0 0 0 0 0 0 -0 1 4 3 2 4 4 4 3 2 1 1 0
0 0 0 0 0 0 0 0 0 0 0 0 0 0 0 0 0 0 0 0 0 4 4 4 4 4 3 3 2 1 1 1
0 0 0 0 0 0 0 0 0 0 0 0 0 0 0 -0 0 0 0 0 0 1 3 4 3 3 4 4 4 2 1 1
0 0 0 0 0 0 0 0 0 0 0 0 0 0 0 0 0 0 0 0 0 1 4 5 4 3 5 4 4 3 2 1
0 0 0 0 0 0 0 0 0 0 0 0 0 0 0 0 0 0 0 0 0 1 3 4 4 5 5 4 3 2 1 1
0 0 0 0 0 0 0 0 0 0 0 0 0 0 0 0 0 0 0 0 0 1 3 3 2 4 4 3 3 2 1 1
Wind_Speed_500mb
1 4 19 9 3 10 24 25 26 20 23 15 22 32 38 54 44 33 45 68 70 67 64 60 56 55 58 61 59 54 49 45
5 16 4 8 8 18 31 21 24 32 18 15 23 27 54 63 35 36 58 65 68 68 64 62 59 58 59 61 59 55 51 47
5 7 6 7 20 19 16 19 28 33 26 33 3 41 50 66 51 39 61 65 70 69 66 61 59 59 61 62 60 57 53 49
10 5 5 5 35 16 26 28 41 34 53 26 18 57 66 53 44 34 58 68 71 71 68 64 60 59 61 63 61 59 55 51
3 3 7 6 40 27 31 36 24 41 29 28 37 71 67 58 43 31 58 67 73 73 71 66 61 59 59 62 63 60 57 54
1 3 7 15 29 26 36 23 28 28 11 35 69 71 58 39 48 29 52 67 75 77 75 70 64 59 57 59 62 60 57 56
1 6 15 32 27 32 29 30 41 26 44 57 60 62 47 40 43 33 45 63 77 80 79 74 69 63 57 56 59 59 58 57
1 14 18 30 35 40 32 44 42 47 54 58 54 56 56 45 40 35 43 54 64 82 86 81 74 68 63 61 61 62 62 61
7 12 23 32 40 33 33 28 42 53 54 57 57 53 57 49 48 44 42 56 66 78 91 88 80 76 71 69 66 65 65 66
10 23 26 31 30 32 29 41 40 44 41 47 55 49 55 61 54 49 46 52 73 74 88 93 86 83 79 75 71 69 67 68
19 26 21 30 29 28 35 39 39 41 39 46 52 56 54 60 57 42 52 53 66 88 91 94 94 86 85 81 77 71 69 69
13 14 26 22 40 23 29 47 47 45 44 47 48 52 55 57 58 46 48 59 64 84 95 93 100 96 90 85 81 76 74 71
11 18 17 20 28 29 40 45 52 50 51 45 51 53 55 55 60 53 46 60 69 84 92 97 99 101 95 92 85 80 78 73
11 31 18 14 34 34 47 51 55 56 56 54 55 60 64 62 59 51 51 48 69 77 80 97 104 106 103 98 93 87 83 78
20 14 22 17 40 36 57 55 57 59 61 61 65 69 72 68 68 62 54 43 62 78 89 91 102 106 109 103 98 93 90 84
30 21 31 34 43 42 52 54 56 61 59 61 62 64 69 78 85 80 61 53 49 71 78 93 98 101 96 102 100 97 95 90
30 27 29 42 46 46 44 37 40 48 52 56 58 61 62 68 72 73 61 56 52 65 75 87 97 99 96 99 102 98 97 95
18 14 31 37 54 36 15 18 27 37 45 46 49 45 46 52 56 52 49 51 51 62 75 85 92 99 95 99 102 98 95 94
36 40 32 20 27 2 7 17 30 40 44 47 49 53 54 60 57 57 51 42 45 57 71 85 90 95 92 86 96 95 95 93
37 31 16 13 16 14 13 18 28 41 54 55 58 60 56 60 63 60 60 47 40 53 65 76 77 91 100 106 102 94 94 87
Wind_Direction_500mb
112 186 240 260 146 43 338 344 355 351 335 330 348 0 354 330 312 233 201 194 191 193 190 189 190 191 188 186 184 183 182 181
233 234 312 324 1 331 332 341 358 343 290 342 31 15 353 354 315 233 201 197 193 193 194 191 192 194 192 189 189 188 188 187
222 251 286 305 328 332 18 9 344 346 322 319 283 15 359 349 341 223 203 199 195 195 195 195 196 197 196 194 193 193 193 192
237 235 303 355 8 354 8 348 331 337 324 311 288 344 345 335 330 240 210 201 198 196 196 198 200 201 200 199 198 198 198 197
290 329 292 81 358 11 348 336 335 325 304 299 317 332 335 337 332 269 215 207 203 199 198 200 203 204 204 204 203 202 202 200
124 42 296 346 351 333 341 331 337 340 325 316 323 332 333 332 330 283 224 212 208 204 200 200 202 206 207 206 205 204 204 202
302 358 311 323 329 330 320 303 314 302 306 306 316 323 325 318 315 286 235 217 209 207 205 203 203 205 207 206 204 204 203 202
57 311 317 318 320 320 316 314 311 303 303 305 314 319 322 310 294 276 250 223 210 208 209 205 205 205 204 204 204 203 203 201
296 320 328 320 313 318 314 312 321 314 310 308 309 311 311 317 296 278 259 236 213 212 211 208 205 205 204 204 204 204 205 203
311 315 313 308 312 302 307 307 310 310 304 306 305 304 303 306 313 279 254 240 226 218 213 211 208 208 208 206 206 205 205 205
300 300 302 300 296 305 297 314 315 310 302 308 308 300 299 294 306 291 253 240 226 224 221 212 212 210 210 210 210 210 209 207
298 301 305 303 310 303 300 316 311 310 305 307 306 304 299 293 296 307 264 247 230 228 228 217 215 215 214 213 211 211 213 214
276 335 305 328 295 300 308 317 315 311 307 310 308 306 301 295 292 296 294 252 237 236 229 224 218 219 219 219 218 216 217 218
334 310 301 329 297 307 314 316 307 305 303 300 303 302 301 300 299 290 293 258 244 237 226 230 222 221 220 220 221 220 221 221
319 287 311 305 297 312 306 306 303 302 300 296 297 296 296 297 304 300 283 284 247 245 235 229 229 224 222 223 222 223 224 224
310 309 312 299 294 305 305 300 300 306 307 302 300 293 292 298 299 300 284 273 260 241 240 236 231 227 221 222 223 223 225 227
304 307 321 303 302 307 313 308 318 330 328 315 306 306 304 306 302 298 283 272 270 236 235 230 225 219 213 217 221 223 225 228
300 303 314 307 298 312 319 5 16 6 359 353 342 332 327 322 318 310 293 280 272 237 232 230 233 224 218 221 225 227 228 230
300 315 293 300 292 50 51 21 21 9 355 351 345 337 334 333 330 332 322 296 269 237 230 229 229 226 216 218 222 222 227 230
303 322 312 14 292 308 353 352 16 6 359 351 345 339 332 335 335 340 335 318 280 235 232 232 221 218 219 219 218 225 229 230
Wind_Speed_850mb
1 4 19 9 3 10 24 25 26 20 23 15 22 32 38 54 44 33 45 68 70 67 64 60 56 55 58 61 59 54 49 45
5 16 4 8 8 18 31 21 24 32 18 15 23 27 54 63 35 36 58 65 68 68 64 62 59 58 59 61 59 55 51 47
5 7 6 7 20 19 16 19 28 33 26 33 3 41 50 66 51 39 61 65 70 69 66 61 59 59 61 62 60 57 53 49
10 5 5 5 35 16 26 28 41 34 53 26 18 57 66 53 44 34 58 68 71 71 68 64 60 59 61 63 61 59 55 51
3 3 7 6 40 27 31 36 24 41 29 28 37 71 67 58 43 31 58 67 73 73 71 66 61 59 59 62 63 60 57 54
1 3 7 15 29 26 36 23 28 28 11 35 69 71 58 39 48 29 52 67 75 77 75 70 64 59 57 59 62 60 57 56
1 6 15 32 27 32 29 30 41 26 44 57 60 62 47 40 43 33 45 63 77 80 79 74 69 63 57 56 59 59 58 57
1 14 18 30 35 40 32 44 42 47 54 58 54 56 56 45 40 35 43 54 64 82 86 81 74 68 63 61 61 62 62 61
7 12 23 32 40 33 33 28 42 53 54 57 57 53 57 49 48 44 42 56 66 78 91 88 80 76 71 69 66 65 65 66
10 23 26 31 30 32 29 41 40 44 41 47 55 49 55 61 54 49 46 52 73 74 88 93 86 83 79 75 71 69 67 68
19 26 21 30 29 28 35 39 39 41 39 46 52 56 54 60 57 42 52 53 66 88 91 94 94 86 85 81 77 71 69 69
13 14 26 22 40 23 29 47 47 45 44 47 48 52 55 57 58 46 48 59 64 84 95 93 100 96 90 85 81 76 74 71
11 18 17 20 28 29 40 45 52 50 51 45 51 53 55 55 60 53 46 60 69 84 92 97 99 101 95 92 85 80 78 73
11 31 18 14 34 34 47 51 55 56 56 54 55 60 64 62 59 51 51 48 69 77 80 97 104 106 103 98 93 87 83 78
20 14 22 17 40 36 57 55 57 59 61 61 65 69 72 68 68 62 54 43 62 78 89 91 102 106 109 103 98 93 90 84
30 21 31 34 43 42 52 54 56 61 59 61 62 64 69 78 85 80 61 53 49 71 78 93 98 101 96 102 100 97 95 90
30 27 29 42 46 46 44 37 40 48 52 56 58 61 62 68 72 73 61 56 52 65 75 87 97 99 96 99 102 98 97 95
18 14 31 37 54 36 15 18 27 37 45 46 49 45 46 52 56 52 49 51 51 62 75 85 92 99 95 99 102 98 95 94
36 40 32 20 27 2 7 17 30 40 44 47 49 53 54 60 57 57 51 42 45 57 71 85 90 95 92 86 96 95 95 93
37 31 16 13 16 14 13 18 28 41 54 55 58 60 56 60 63 60 60 47 40 53 65 76 77 91 100 106 102 94 94 87
Wind_Direction_850mb
112 186 240 260 146 43 338 344 355 351 335 330 348 0 354 330 312 233 201 194 191 193 190 189 190 191 188 186 184 183 182 181
233 234 312 324 1 331 332 341 358 343 290 342 31 15 353 354 315 233 201 197 193 193 194 191 192 194 192 189 189 188 188 187
222 251 286 305 328 332 18 9 344 346 322 319 283 15 359 349 341 223 203 199 195 195 195 195 196 197 196 194 193 193 193 192
237 235 303 355 8 354 8 348 331 337 324 311 288 344 345 335 330 240 210 201 198 196 196 198 200 201 200 199 198 198 198 197
290 329 292 81 358 11 348 336 335 325 304 299 317 332 335 337 332 269 215 207 203 199 198 200 203 204 204 204 203 202 202 200
124 42 296 346 351 333 341 331 337 340 325 316 323 332 333 332 330 283 224 212 208 204 200 200 202 206 207 206 205 204 204 202
302 358 311 323 329 330 320 303 314 302 306 306 316 323 325 318 315 286 235 217 209 207 205 203 203 205 207 206 204 204 203 202
57 311 317 318 320 320 316 314 311 303 303 305 314 319 322 310 294 276 250 223 210 208 209 205 205 205 204 204 204 203 203 201
296 320 328 320 313 318 314 312 321 314 310 308 309 311 311 317 296 278 259 236 213 212 211 208 205 205 204 204 204 204 205 203
311 315 313 308 312 302 307 307 310 310 304 306 305 304 303 306 313 279 254 240 226 218 213 211 208 208 208 206 206 205 205 205
300 300 302 300 296 305 297 314 315 310 302 308 308 300 299 294 306 291 253 240 226 224 221 212 212 210 210 210 210 210 209 207
298 301 305 303 310 303 300 316 311 310 305 307 306 304 299 293 296 307 264 247 230 228 228 217 215 215 214 213 211 211 213 214
276 335 305 328 295 300 308 317 315 311 307 310 308 306 301 295 292 296 294 252 237 236 229 224 218 219 219 219 218 216 217 218
334 310 301 329 297 307 314 316 307 305 303 300 303 302 301 300 299 290 293 258 244 237 226 230 222 221 220 220 221 220 221 221
319 287 311 305 297 312 306 306 303 302 300 296 297 296 296 297 304 300 283 284 247 245 235 229 229 224 222 223 222 223 224 224
310 309 312 299 294 305 305 300 300 306 307 302 300 293 292 298 299 300 284 273 260 241 240 236 231 227 221 222 223 223 225 227
304 307 321 303 302 307 313 308 318 330 328 315 306 306 304 306 302 298 283 272 270 236 235 230 225 219 213 217 221 223 225 228
300 303 314 307 298 312 319 5 16 6 359 353 342 332 327 322 318 310 293 280 272 237 232 230 233 224 218 221 225 227 228 230
300 315 293 300 292 50 51 21 21 9 355 351 345 337 334 333 330 332 322 296 269 237 230 229 229 226 216 218 222 222 227 230
303 322 312 14 292 308 353 352 16 6 359 351 345 339 332 335 335 340 335 318 280 235 232 232 221 218 219 219 218 225 229 230